STARLINK-35927

Last updated on Wed Dec 31 2025 00:02:06 GMT+0000 (Coordinated Universal Time)

1 66624U 25271H 25364.58010892 .00052748 00000+0 13200-2 0 9997 2 66624 53.1592 102.5109 0001347 72.7348 287.3805 15.39608753 6966
UTC large
Height (km)
Speed (km/s)
/
Latitude / Longitude
Inclination (degrees)
Orbital Period (minutes)
Azimuth
Elevation
Range (km)
Doppler Factor

Next 0 passes for location: London (51.5072 / 0.1276)

Sorry there are no passes over London.